Location: Unspecified
(48.8656°N, 0.0000°E)
Time: 23:01:58
(UTC+00:00)

Vanguard 3 - Pass Details

Date: 18 June 2019
Orbit: 507 x 3264 km, 33.4° (Epoch: 20 July)

Event Time Altitude Azimuth Distance (km) Brightness Sun altitude
Rises 12:37:56 0° 225° (SW) 5,281 11.6 63.5°
Reaches altitude 10° 12:43:27 10° 208° (SSW) 3,671 11.1 63.2°
Maximum altitude 12:48:32 17° 173° (S) 2,607 10.4 62.9°
Drops below altitude 10° 12:52:24 10° 135° (SE) 2,634 10.0 62.6°
Sets 12:55:26 0° 114° (ESE) 3,243 10.2 62.4°
